Regional Weather Roundup
Issued by NWS

Home | Current Version | Previous Version | Graphics & Text | Print | Product List | Glossary On
Versions: 1 2 3 4 5 6 7 8 9 10 11 12 13 14 15 16 17 18 19 20 21 22 23 24 25 26 27 28 29 30 31 32 33 34 35 36 37 38 39 40 41 42 43 44 45 46 47 48 49 50
000
ASUS44 KMEG 272200
RWRTN
TENNESSEE HOURLY STATE WEATHER ROUNDUP
NATIONAL WEATHER SERVICE MEMPHIS TN
500 PM CDT THU AUG 27 2015

TNZ002-004-019-021-049-052-054-088>092-272300-
WEST TENNESSEE

CITY           SKY/WX    TMP DP  RH WIND       PRES   REMARKS
MEMPHIS INTL   FAIR      82  56  40 NE9G18    30.07S
NWS MEMPHIS      N/A     79 N/A N/A MISG        N/A
JACKSON        FAIR      77  58  51 E7        30.08S
DYERSBURG      PTSUNNY  N/A N/A N/A MISG        N/A
UNION CITY     SUNNY     81  59  47 N6        30.08S
PARIS          MOSUNNY   77  59  53 NE10      30.10S
LEXINGTON      MOSUNNY   79  54  41 NE8       30.07S
$$

TNZ008-025-027-028-033-062-065-066-272300-
NORTH MIDDLE TENNESSEE

CITY           SKY/WX    TMP DP  RH WIND       PRES   REMARKS
NASHVILLE      FAIR      83  53  35 NW6       30.08S
CLARKSVILLE    FAIR      80  54  40 NE5       30.08F
COOKEVILLE     SUNNY     82  64  54 N6        30.07S
CROSSVILLE     FAIR      77  58  51 N6        30.11S
$$

TNZ061-075-076-078-094-096-097-272300-
SOUTH MIDDLE TENNESSEE

CITY           SKY/WX    TMP DP  RH WIND       PRES   REMARKS
FAYETTEVILLE     N/A     79  61  53 N6        30.06R
TULLAHOMA      MOSUNNY   81  61  50 N7        30.08R
WINCHESTER     SUNNY     82  63  51 N7        30.05S
COLUMBIA       SUNNY     82  55  39 N5        30.06S
SHELBYVILLE    SUNNY     82  63  51 N6        30.08R
$$

TNZ017-018-042-046-047-272300-
NORTHEAST TENNESSEE

CITY           SKY/WX    TMP DP  RH WIND       PRES   REMARKS
TRI CITIES     FAIR      82  57  42 VRB3      30.07S
ELIZABETHTON   CLEAR     79  55  44 NE3       30.07S
$$

TNZ012-013-036-069-073-074-272300-
CENTRAL EAST TENNESSEE

CITY           SKY/WX    TMP DP  RH WIND       PRES   REMARKS
KNOXVILLE      FAIR      82  59  45 N7        30.04R
OAK RIDGE      FAIR      83  60  45 CALM      30.07R
GATLINBURG     MOCLDY    81  57  44 NE5       30.04R
$$

TNZ083-085-099-272300-
SOUTHEAST TENNESSEE

CITY           SKY/WX    TMP DP  RH WIND       PRES   REMARKS
CHATTANOOGA    FAIR      84  61  45 N8        30.02S
$$

SKY/WX REPORTED AS FAIR MEANS FEW OR NO CLOUDS BELOW
12 THOUSAND FEET.



USA.gov is the U.S. government's official web portal to all federal, state and local government web resources and services.